Destin, FL

10:01 PM CST on December 02, 2016 (GMT -0600)
Destin-Fort Walton Beach

Weather History for KDTS - October, 2012

Change the Weather History Date:

Thursday, October 25, 2012

  Actual Average Record
Temperature  
Mean Temperature 75 °F -  
Max Temperature 84 °F 75 °F 86 °F (2016)
Min Temperature 68 °F 59 °F 45 °F (2005)
Cooling Degree Days 10    
Growing Degree Days 25 (Base 50)    
Moisture  
Dew Point 63 °F    
Average Humidity 70    
Maximum Humidity 84    
Minimum Humidity 47    
Precipitation  
Precipitation 0.00 in - - ()
Sea Level Pressure  
Sea Level Pressure 29.97 in    
Wind  
Wind Speed 5 mph (ENE)    
Max Wind Speed 9 mph    
Max Gust Speed -    
Visibility 10 miles    
Events      
Averages and records for this station are not official NWS values.
T = Trace of Precipitation, MM = Missing Value Source: NWS Daily Summary

Daily Weather History Graph

Daily Weather History Graph

Search for Another Location

Airport or City:

Trip Planner

Search our weather history database for the weather conditions in past years. The results will help you decide how hot, cold, wet, or windy it might be!

Date:

Astronomy

Oct. 25, 2012 Rise Set
Actual Time 6:55 AM CDT 6:03 PM CDT
Civil Twilight 6:30 AM CDT 6:28 PM CDT
Nautical Twilight 6:02 AM CDT 6:56 PM CDT
Astronomical Twilight 5:34 AM CDT 7:24 PM CDT
Moon 3:37 PM CDT (10/25) 3:06 AM CDT (10/25)
Length of Visible Light 11h 57m
Length of Day
11h 08m
Waxing Gibbous, 84% of the Moon is Illuminated
Oct 25
Waxing Gibbous
Oct 29
Full
Nov 6
Last Quarter
Nov 13
New
Nov 20
First Quarter

Hourly Weather History & Observations

Time (CDT) Temp. Heat Index Dew Point Humidity Pressure Visibility Wind Dir Wind Speed Gust Speed Precip Events Conditions
12:53 AM 69.1 °F - 60.1 °F 73% 30.00 in 10.0 mi North 4.6 mph - N/A   Clear
1:53 AM 70.0 °F - 61.0 °F 73% 29.99 in 10.0 mi East 4.6 mph - N/A   Clear
2:53 AM 70.0 °F - 62.1 °F 76% 29.98 in 10.0 mi East 5.8 mph - N/A   Clear
3:53 AM 69.1 °F - 62.1 °F 78% 29.96 in 10.0 mi East 6.9 mph - N/A   Clear
4:53 AM 69.1 °F - 63.0 °F 81% 29.96 in 10.0 mi East 5.8 mph - N/A   Clear
5:53 AM 68.0 °F - 63.0 °F 84% 29.98 in 10.0 mi East 5.8 mph - N/A   Clear
6:53 AM 68.0 °F - 63.0 °F 84% 29.99 in 10.0 mi ENE 5.8 mph - N/A   Clear
7:53 AM 69.1 °F - 64.0 °F 84% 30.00 in 10.0 mi ENE 8.1 mph - N/A   Clear
8:53 AM 71.1 °F - 64.0 °F 78% 30.02 in 10.0 mi East 9.2 mph - N/A   Clear
9:53 AM 73.9 °F - 64.0 °F 71% 30.01 in 10.0 mi East 9.2 mph - N/A   Clear
10:53 AM 77.0 °F - 64.9 °F 66% 30.01 in 10.0 mi East 6.9 mph - N/A   Clear
11:53 AM 80.1 °F 81.9 °F 64.9 °F 60% 29.99 in 10.0 mi ENE 6.9 mph - N/A   Clear
12:53 PM 82.0 °F 83.1 °F 63.0 °F 52% 29.97 in 10.0 mi NE 5.8 mph - N/A   Clear
1:53 PM 82.9 °F 83.3 °F 61.0 °F 47% 29.95 in 10.0 mi Calm Calm - N/A   Clear
2:53 PM 82.9 °F 84.4 °F 64.0 °F 53% 29.94 in 10.0 mi Variable 3.5 mph - N/A   Partly Cloudy
3:53 PM 82.0 °F 83.1 °F 63.0 °F 52% 29.93 in 10.0 mi SW 3.5 mph - N/A   Clear
4:53 PM 82.0 °F 83.1 °F 63.0 °F 52% 29.93 in 10.0 mi Calm Calm - N/A   Clear
5:53 PM 78.1 °F - 64.0 °F 62% 29.94 in 10.0 mi NNW 3.5 mph - N/A   Clear
6:53 PM 72.0 °F - 64.0 °F 76% 29.95 in 10.0 mi Calm Calm - N/A   Clear
7:53 PM 73.0 °F - 64.0 °F 73% 29.95 in 10.0 mi Calm Calm - N/A   Clear
8:53 PM 72.0 °F - 64.0 °F 76% 29.95 in 10.0 mi North 3.5 mph - N/A   Clear
9:53 PM 72.0 °F - 64.0 °F 76% 29.95 in 10.0 mi North 3.5 mph - N/A   Clear
10:53 PM 71.1 °F - 63.0 °F 75% 29.94 in 10.0 mi NNE 3.5 mph - N/A   Clear
11:53 PM 71.1 °F - 63.0 °F 75% 29.93 in 10.0 mi Calm Calm - N/A   Clear